WAT5327 KSFO-KJAC

Flight info

Callsign WAT5327
Flight time 1h 36m
Altitude 39000
Route TRUKN2 ORRCA Q120 GALLI RYKKR ELLKK HOMVA
Aircraft A319/M-SDE3FGHIRWY/LB1

Departure

Time 2026-05-07 23:49
Airport San Francisco International Airport (KSFO)

Arrival

Time 2026-05-08 01:26
Airport Jackson Hole Airport (KJAC)
Time Latitude Longitude Altitude Speed Heading
2026-05-07 23:27 37.61672 -122.38125 17 ft 0 kts
2026-05-07 23:39 37.61666 -122.38126 19 ft 4 kts
2026-05-07 23:40 37.61642 -122.38126 18 ft 3 kts
2026-05-07 23:40 37.61623 -122.38133 16 ft 4 kts 46°
2026-05-07 23:40 37.61609 -122.38156 15 ft 1 kts 39°
2026-05-07 23:40 37.61608 -122.38156 18 ft 0 kts 38°
2026-05-07 23:43 37.61614 -122.38144 15 ft 3 kts 67°
2026-05-07 23:43 37.61600 -122.38109 15 ft 7 kts 129°
2026-05-07 23:43 37.61549 -122.38057 16 ft 12 kts 173°
2026-05-07 23:43 37.61468 -122.38095 16 ft 13 kts 203°
2026-05-07 23:44 37.61388 -122.38045 16 ft 15 kts 120°
2026-05-07 23:44 37.61332 -122.37911 17 ft 19 kts 117°
2026-05-07 23:44 37.61266 -122.37763 19 ft 20 kts 120°
2026-05-07 23:44 37.61227 -122.37602 18 ft 18 kts 80°
2026-05-07 23:45 37.61289 -122.37475 22 ft 18 kts 31°
2026-05-07 23:45 37.61402 -122.37397 23 ft 20 kts 27°
2026-05-07 23:45 37.61523 -122.37307 26 ft 20 kts 52°
2026-05-07 23:45 37.61554 -122.37131 22 ft 22 kts 104°
2026-05-07 23:46 37.61482 -122.36951 23 ft 24 kts 123°
2026-05-07 23:46 37.61369 -122.36779 19 ft 27 kts 128°
2026-05-07 23:46 37.61272 -122.36567 17 ft 29 kts 119°
2026-05-07 23:46 37.61174 -122.36337 18 ft 30 kts 118°
2026-05-07 23:47 37.61090 -122.36133 19 ft 25 kts 116°
2026-05-07 23:47 37.61049 -122.36007 20 ft 4 kts 104°
2026-05-07 23:47 37.61065 -122.35946 20 ft 10 kts 58°
2026-05-07 23:47 37.61132 -122.35885 19 ft 13 kts 19°
2026-05-07 23:48 37.61210 -122.35933 18 ft 12 kts 297°
2026-05-07 23:48 37.61217 -122.35951 17 ft 0 kts 297°
2026-05-07 23:48 37.61246 -122.36023 15 ft 35 kts 297°
2026-05-07 23:48 37.61461 -122.36535 18 ft 95 kts 298°
2026-05-07 23:49 37.61854 -122.37467 94 ft 140 kts 297°
2026-05-07 23:49 37.62324 -122.38542 749 ft 141 kts 298°
2026-05-07 23:49 37.63080 -122.39335 1439 ft 149 kts 338°
2026-05-07 23:49 37.64151 -122.39352 2042 ft 168 kts 12°
2026-05-07 23:50 37.65126 -122.38341 2380 ft 203 kts 54°
2026-05-07 23:50 37.65807 -122.36650 2775 ft 227 kts 62°
2026-05-07 23:50 37.66527 -122.34803 3267 ft 250 kts 62°
2026-05-07 23:50 37.67334 -122.32736 3887 ft 273 kts 63°
2026-05-07 23:51 37.68186 -122.30546 4826 ft 282 kts 63°
2026-05-07 23:51 37.69060 -122.28311 5823 ft 287 kts 63°
2026-05-07 23:51 37.69958 -122.26021 6770 ft 293 kts 63°
2026-05-07 23:51 37.70870 -122.23703 7707 ft 297 kts 63°
2026-05-07 23:52 37.72020 -122.21515 8613 ft 302 kts 47°
2026-05-07 23:52 37.73609 -122.19763 9552 ft 305 kts 34°
2026-05-07 23:52 37.75345 -122.18206 10421 ft 311 kts 34°
2026-05-07 23:52 37.77175 -122.16567 10777 ft 334 kts 34°
2026-05-07 23:53 37.79104 -122.14835 11382 ft 344 kts 34°
2026-05-07 23:53 37.81067 -122.13065 12133 ft 349 kts 34°
2026-05-07 23:53 37.83051 -122.11270 12913 ft 353 kts 34°
2026-05-07 23:53 37.85058 -122.09450 13738 ft 356 kts 34°
2026-05-07 23:54 37.87077 -122.07616 14459 ft 359 kts 34°
2026-05-07 23:54 37.89114 -122.05766 15175 ft 361 kts 34°
2026-05-07 23:54 37.91161 -122.03904 15908 ft 364 kts 34°
2026-05-07 23:54 37.93224 -122.02030 16645 ft 366 kts 35°
2026-05-07 23:55 37.95278 -122.00166 17373 ft 368 kts 35°
2026-05-07 23:55 37.97392 -121.98248 18105 ft 371 kts 34°
2026-05-07 23:55 37.99470 -121.96360 18761 ft 374 kts 34°
2026-05-07 23:55 38.01592 -121.94430 19358 ft 377 kts 34°
2026-05-07 23:56 38.03736 -121.92474 19949 ft 381 kts 35°
2026-05-07 23:56 38.05903 -121.90497 20541 ft 386 kts 35°
2026-05-07 23:56 38.08090 -121.88499 21121 ft 390 kts 35°
2026-05-07 23:56 38.10304 -121.86476 21690 ft 394 kts 35°
2026-05-07 23:57 38.12572 -121.84403 22258 ft 398 kts 35°
2026-05-07 23:57 38.14798 -121.82361 22815 ft 402 kts 35°
2026-05-07 23:57 38.17077 -121.80270 23385 ft 406 kts 35°
2026-05-07 23:57 38.19378 -121.78159 23901 ft 410 kts 35°
2026-05-07 23:58 38.21705 -121.76028 24379 ft 413 kts 35°
2026-05-07 23:58 38.24055 -121.73876 24838 ft 417 kts 35°
2026-05-07 23:58 38.26412 -121.71715 25315 ft 419 kts 35°
2026-05-07 23:58 38.28787 -121.69536 25807 ft 422 kts 35°
2026-05-07 23:59 38.31173 -121.67346 26282 ft 424 kts 35°
2026-05-07 23:59 38.33571 -121.65144 26729 ft 427 kts 35°
2026-05-07 23:59 38.35992 -121.62916 27182 ft 430 kts 35°
2026-05-07 23:59 38.38420 -121.60674 27633 ft 433 kts 35°
2026-05-08 00:00 38.40866 -121.58411 28071 ft 436 kts 35°
2026-05-08 00:00 38.43299 -121.56078 28530 ft 438 kts 39°
2026-05-08 00:00 38.45476 -121.53331 28975 ft 442 kts 49°
2026-05-08 00:00 38.47385 -121.50248 29439 ft 444 kts 51°
2026-05-08 00:01 38.49262 -121.47172 29905 ft 446 kts 52°
2026-05-08 00:01 38.51198 -121.44005 30320 ft 449 kts 51°
2026-05-08 00:01 38.53100 -121.40896 30686 ft 451 kts 51°
2026-05-08 00:01 38.55037 -121.37727 31016 ft 453 kts 52°
2026-05-08 00:02 38.56976 -121.34548 31358 ft 456 kts 52°
2026-05-08 00:02 38.58931 -121.31337 31697 ft 458 kts 52°
2026-05-08 00:02 38.60891 -121.28110 32043 ft 461 kts 52°
2026-05-08 00:02 38.62863 -121.24858 32381 ft 463 kts 52°
2026-05-08 00:03 38.64828 -121.21615 32845 ft 461 kts 51°
2026-05-08 00:03 38.66797 -121.18366 33353 ft 460 kts 51°
2026-05-08 00:03 38.68754 -121.15140 33866 ft 459 kts 52°
2026-05-08 00:03 38.70710 -121.11916 34342 ft 458 kts 52°
2026-05-08 00:04 38.72662 -121.08700 34773 ft 457 kts 52°
2026-05-08 00:04 38.74611 -121.05479 35185 ft 456 kts 52°
2026-05-08 00:04 38.76544 -121.02269 35591 ft 455 kts 52°
2026-05-08 00:04 38.78478 -120.99045 36008 ft 455 kts 52°
2026-05-08 00:05 38.80403 -120.95835 36416 ft 454 kts 52°
2026-05-08 00:05 38.82331 -120.92621 36833 ft 454 kts 52°
2026-05-08 00:05 38.84256 -120.89417 37209 ft 454 kts 52°
2026-05-08 00:05 38.86182 -120.86215 37579 ft 453 kts 52°
2026-05-08 00:06 38.88107 -120.83012 37949 ft 453 kts 52°
2026-05-08 00:06 38.90024 -120.79813 38318 ft 452 kts 52°
2026-05-08 00:06 38.91943 -120.76607 38680 ft 452 kts 52°
2026-05-08 00:06 38.93858 -120.73410 38993 ft 451 kts 52°
2026-05-08 00:07 38.97684 -120.67012 39102 ft 451 kts 52°
2026-05-08 00:07 39.01503 -120.60607 39137 ft 451 kts 52°
2026-05-08 00:08 39.05282 -120.54253 39159 ft 450 kts 52°
2026-05-08 00:08 39.09079 -120.47848 39159 ft 450 kts 52°
2026-05-08 00:09 39.12880 -120.41435 39150 ft 451 kts 52°
2026-05-08 00:09 39.16067 -120.36041 39168 ft 451 kts 52°
2026-05-08 00:10 39.19852 -120.29633 39178 ft 453 kts 51°
2026-05-08 00:10 39.23665 -120.23160 39213 ft 454 kts 51°
2026-05-08 00:11 39.27484 -120.16659 39226 ft 454 kts 52°
2026-05-08 00:11 39.31294 -120.10156 39240 ft 454 kts 51°
2026-05-08 00:12 39.35100 -120.03655 39254 ft 453 kts 51°
2026-05-08 00:12 39.38899 -119.97157 39091 ft 453 kts 51°
2026-05-08 00:13 39.42690 -119.90656 39120 ft 452 kts 52°
2026-05-08 00:13 39.46469 -119.84155 39125 ft 452 kts 51°
2026-05-08 00:14 39.50246 -119.77648 39133 ft 452 kts 51°
2026-05-08 00:14 39.54019 -119.71133 39131 ft 451 kts 52°
2026-05-08 00:15 39.57760 -119.64672 39120 ft 451 kts 51°
2026-05-08 00:15 39.61518 -119.58172 39083 ft 451 kts 51°
2026-05-08 00:16 39.65269 -119.51654 39039 ft 450 kts 51°
2026-05-08 00:16 39.69016 -119.45141 39002 ft 450 kts 51°
2026-05-08 00:17 39.72748 -119.38632 38993 ft 449 kts 50°
2026-05-08 00:17 39.76479 -119.32116 38981 ft 449 kts 51°
2026-05-08 00:18 39.80197 -119.25600 38977 ft 449 kts 52°
2026-05-08 00:18 39.83904 -119.19077 38977 ft 448 kts 50°
2026-05-08 00:19 39.87604 -119.12572 38978 ft 446 kts 51°
2026-05-08 00:19 39.91241 -119.06016 38969 ft 446 kts 53°
2026-05-08 00:20 39.94642 -118.99243 38979 ft 447 kts 55°
2026-05-08 00:20 39.97980 -118.92399 39006 ft 446 kts 55°
2026-05-08 00:21 40.01154 -118.85441 39021 ft 446 kts 58°
2026-05-08 00:21 40.04097 -118.78368 39039 ft 446 kts 59°
2026-05-08 00:22 40.07063 -118.71202 39051 ft 446 kts 59°
2026-05-08 00:22 40.10041 -118.64171 38985 ft 445 kts 58°
2026-05-08 00:23 40.13049 -118.57114 38984 ft 444 kts 58°
2026-05-08 00:23 40.16035 -118.50080 38988 ft 444 kts 58°
2026-05-08 00:24 40.19001 -118.43058 38981 ft 444 kts 58°
2026-05-08 00:24 40.21974 -118.36009 38990 ft 444 kts 58°
2026-05-08 00:25 40.24945 -118.28937 38981 ft 443 kts 58°
2026-05-08 00:25 40.27908 -118.21871 38977 ft 443 kts 58°
2026-05-08 00:26 40.30874 -118.14780 38975 ft 443 kts 58°
2026-05-08 00:26 40.33684 -118.07579 38972 ft 444 kts 62°
2026-05-08 00:27 40.36188 -118.00170 38978 ft 445 kts 64°
2026-05-08 00:27 40.38629 -117.92709 38978 ft 445 kts 63°
2026-05-08 00:28 40.41113 -117.85335 38973 ft 444 kts 63°
2026-05-08 00:28 40.43642 -117.77941 38973 ft 444 kts 63°
2026-05-08 00:29 40.46170 -117.70545 38969 ft 444 kts 63°
2026-05-08 00:29 40.48686 -117.63131 38970 ft 444 kts 63°
2026-05-08 00:30 40.51187 -117.55707 38969 ft 444 kts 63°
2026-05-08 00:30 40.53673 -117.48334 38969 ft 444 kts 63°
2026-05-08 00:31 40.56174 -117.40912 38968 ft 444 kts 62°
2026-05-08 00:31 40.58666 -117.33475 38965 ft 444 kts 63°
2026-05-08 00:32 40.61108 -117.26158 38959 ft 444 kts 63°
2026-05-08 00:32 40.63572 -117.18749 39006 ft 444 kts 63°
2026-05-08 00:33 40.66047 -117.11300 39034 ft 444 kts 62°
2026-05-08 00:33 40.68521 -117.03830 39044 ft 445 kts 63°
2026-05-08 00:34 40.70987 -116.96352 39055 ft 445 kts 63°
2026-05-08 00:34 40.73461 -116.88874 39051 ft 445 kts 62°
2026-05-08 00:35 40.75930 -116.81390 39038 ft 445 kts 62°
2026-05-08 00:35 40.78384 -116.73891 38955 ft 446 kts 62°
2026-05-08 00:36 40.80822 -116.66420 38954 ft 446 kts 62°
2026-05-08 00:36 40.83274 -116.58897 38958 ft 446 kts 62°
2026-05-08 00:37 40.85726 -116.51368 38966 ft 446 kts 62°
2026-05-08 00:38 40.89396 -116.40055 38977 ft 446 kts 62°
2026-05-08 00:38 40.91832 -116.32507 38978 ft 446 kts 62°
2026-05-08 00:39 40.94262 -116.24959 38996 ft 446 kts 62°
2026-05-08 00:39 40.96688 -116.17412 39006 ft 446 kts 62°
2026-05-08 00:40 40.99113 -116.09851 39018 ft 446 kts 62°
2026-05-08 00:40 41.01526 -116.02298 39022 ft 445 kts 62°
2026-05-08 00:41 41.03923 -115.94752 39043 ft 445 kts 62°
2026-05-08 00:41 41.06302 -115.87263 39034 ft 445 kts 62°
2026-05-08 00:42 41.08703 -115.79704 39022 ft 445 kts 62°
2026-05-08 00:42 41.11099 -115.72131 39004 ft 445 kts 62°
2026-05-08 00:43 41.13482 -115.64545 38984 ft 445 kts 62°
2026-05-08 00:43 41.15860 -115.56958 38972 ft 445 kts 61°
2026-05-08 00:44 41.18226 -115.49419 38960 ft 445 kts 61°
2026-05-08 00:44 41.20609 -115.41819 38958 ft 446 kts 61°
2026-05-08 00:45 41.22982 -115.34199 38953 ft 446 kts 62°
2026-05-08 00:45 41.25348 -115.26572 38964 ft 446 kts 61°
2026-05-08 00:46 41.27719 -115.18935 38967 ft 446 kts 61°
2026-05-08 00:46 41.30066 -115.11349 38965 ft 447 kts 61°
2026-05-08 00:47 41.32418 -115.03692 38964 ft 447 kts 61°
2026-05-08 00:47 41.34744 -114.96090 38985 ft 447 kts 61°
2026-05-08 00:48 41.37095 -114.88428 38968 ft 446 kts 61°
2026-05-08 00:48 41.39434 -114.80777 38964 ft 446 kts 61°
2026-05-08 00:49 41.41749 -114.73154 38965 ft 446 kts 61°
2026-05-08 00:49 41.44071 -114.65495 38963 ft 446 kts 61°
2026-05-08 00:50 41.46386 -114.57872 38958 ft 446 kts 61°
2026-05-08 00:50 41.48690 -114.50244 38953 ft 446 kts 61°
2026-05-08 00:51 41.50982 -114.42625 38956 ft 446 kts 61°
2026-05-08 00:51 41.53289 -114.34950 38977 ft 446 kts 60°
2026-05-08 00:52 41.55594 -114.27246 38966 ft 446 kts 61°
2026-05-08 00:52 41.57887 -114.19548 38959 ft 446 kts 61°
2026-05-08 00:53 41.60161 -114.11901 38960 ft 446 kts 61°
2026-05-08 00:53 41.62437 -114.04226 38974 ft 446 kts 60°
2026-05-08 00:54 41.64716 -113.96517 38972 ft 446 kts 60°
2026-05-08 00:54 41.66992 -113.88793 38980 ft 446 kts 60°
2026-05-08 00:55 41.69571 -113.81332 38970 ft 435 kts 49°
2026-05-08 00:55 41.72816 -113.74552 38987 ft 435 kts 49°
2026-05-08 00:56 41.76063 -113.67723 38958 ft 433 kts 49°
2026-05-08 00:56 41.79300 -113.60890 38951 ft 435 kts 49°
2026-05-08 00:57 41.82539 -113.54033 38947 ft 435 kts 49°
2026-05-08 00:57 41.85752 -113.47212 38937 ft 436 kts 49°
2026-05-08 00:58 41.88976 -113.40368 38964 ft 435 kts 49°
2026-05-08 00:58 41.92208 -113.33494 38955 ft 436 kts 49°
2026-05-08 00:59 41.95427 -113.26612 38951 ft 435 kts 49°
2026-05-08 00:59 41.98643 -113.19730 38947 ft 434 kts 49°
2026-05-08 01:00 42.01316 -113.14007 38945 ft 434 kts 49°
2026-05-08 01:00 42.04506 -113.07151 38950 ft 433 kts 48°
2026-05-08 01:01 42.07684 -113.00294 38933 ft 431 kts 48°
2026-05-08 01:01 42.10860 -112.93434 38933 ft 432 kts 48°
2026-05-08 01:02 42.14038 -112.86566 38932 ft 432 kts 48°
2026-05-08 01:02 42.17214 -112.79677 38937 ft 432 kts 48°
2026-05-08 01:03 42.20360 -112.72837 38962 ft 433 kts 48°
2026-05-08 01:03 42.23526 -112.65931 38951 ft 432 kts 48°
2026-05-08 01:04 42.26691 -112.59028 38945 ft 432 kts 48°
2026-05-08 01:04 42.29849 -112.52123 38946 ft 432 kts 48°
2026-05-08 01:04 42.31428 -112.48662 38594 ft 435 kts 48°
2026-05-08 01:05 42.33045 -112.45138 37688 ft 445 kts 48°
2026-05-08 01:05 42.34672 -112.41575 37061 ft 446 kts 48°
2026-05-08 01:05 42.36302 -112.37992 36330 ft 449 kts 48°
2026-05-08 01:05 42.37935 -112.34395 35780 ft 448 kts 49°
2026-05-08 01:06 42.39553 -112.30810 35371 ft 444 kts 49°
2026-05-08 01:06 42.41136 -112.27294 34883 ft 442 kts 49°
2026-05-08 01:06 42.42730 -112.23755 34414 ft 439 kts 49°
2026-05-08 01:06 42.44313 -112.20244 33935 ft 436 kts 49°
2026-05-08 01:07 42.45888 -112.16749 33423 ft 434 kts 49°
2026-05-08 01:07 42.47455 -112.13269 32948 ft 430 kts 49°
2026-05-08 01:07 42.49005 -112.09823 32466 ft 427 kts 49°
2026-05-08 01:07 42.50540 -112.06409 32002 ft 423 kts 49°
2026-05-08 01:08 42.52061 -112.03022 31541 ft 418 kts 49°
2026-05-08 01:08 42.53567 -111.99663 31078 ft 414 kts 50°
2026-05-08 01:08 42.55057 -111.96347 30633 ft 411 kts 50°
2026-05-08 01:08 42.56539 -111.93053 30205 ft 407 kts 50°
2026-05-08 01:09 42.58003 -111.89786 29744 ft 404 kts 50°
2026-05-08 01:09 42.59451 -111.86536 29317 ft 398 kts 51°
2026-05-08 01:09 42.60875 -111.83338 28914 ft 394 kts 51°
2026-05-08 01:09 42.62279 -111.80182 28519 ft 389 kts 51°
2026-05-08 01:10 42.63675 -111.77046 28132 ft 386 kts 50°
2026-05-08 01:10 42.65057 -111.73939 27744 ft 384 kts 51°
2026-05-08 01:10 42.66435 -111.70841 27347 ft 381 kts 51°
2026-05-08 01:10 42.67796 -111.67779 26965 ft 377 kts 51°
2026-05-08 01:11 42.69131 -111.64774 26566 ft 375 kts 51°
2026-05-08 01:11 42.70473 -111.61752 26186 ft 372 kts 51°
2026-05-08 01:11 42.71809 -111.58745 25781 ft 370 kts 51°
2026-05-08 01:11 42.73134 -111.55756 25377 ft 368 kts 51°
2026-05-08 01:12 42.74449 -111.52776 24978 ft 366 kts 51°
2026-05-08 01:12 42.75758 -111.49809 24556 ft 364 kts 52°
2026-05-08 01:12 42.77059 -111.46859 24144 ft 363 kts 52°
2026-05-08 01:12 42.78357 -111.43910 23717 ft 362 kts 52°
2026-05-08 01:13 42.79647 -111.40973 23257 ft 361 kts 52°
2026-05-08 01:13 42.80931 -111.38049 22832 ft 358 kts 52°
2026-05-08 01:13 42.82201 -111.35152 22419 ft 355 kts 52°
2026-05-08 01:13 42.83461 -111.32273 21997 ft 352 kts 52°
2026-05-08 01:14 42.84709 -111.29418 21588 ft 350 kts 53°
2026-05-08 01:14 42.85952 -111.26577 21160 ft 348 kts 53°
2026-05-08 01:14 42.87189 -111.23746 20754 ft 346 kts 53°
2026-05-08 01:14 42.88414 -111.20937 20346 ft 344 kts 53°
2026-05-08 01:15 42.89617 -111.18175 19893 ft 342 kts 54°
2026-05-08 01:15 42.90853 -111.15359 19475 ft 340 kts 52°
2026-05-08 01:15 42.92326 -111.12897 19081 ft 332 kts 38°
2026-05-08 01:15 42.94117 -111.11041 18653 ft 325 kts 25°
2026-05-08 01:16 42.96124 -111.09693 18232 ft 321 kts 20°
2026-05-08 01:16 42.98155 -111.08388 17728 ft 322 kts 21°
2026-05-08 01:16 43.00175 -111.07075 17310 ft 320 kts 21°
2026-05-08 01:16 43.02172 -111.05776 16912 ft 317 kts 21°
2026-05-08 01:17 43.04154 -111.04484 16500 ft 315 kts 21°
2026-05-08 01:17 43.06130 -111.03194 16096 ft 313 kts 21°
2026-05-08 01:17 43.08087 -111.01916 15704 ft 312 kts 21°
2026-05-08 01:17 43.10045 -111.00643 15310 ft 311 kts 21°
2026-05-08 01:18 43.11999 -110.99375 14918 ft 310 kts 21°
2026-05-08 01:18 43.13942 -110.98110 14522 ft 310 kts 22°
2026-05-08 01:18 43.15890 -110.96838 14126 ft 309 kts 22°
2026-05-08 01:18 43.17837 -110.95566 13717 ft 310 kts 22°
2026-05-08 01:19 43.19782 -110.94296 13302 ft 309 kts 22°
2026-05-08 01:19 43.21718 -110.93031 12893 ft 307 kts 21°
2026-05-08 01:19 43.23640 -110.91785 12493 ft 305 kts 18°
2026-05-08 01:19 43.25622 -110.90801 12094 ft 302 kts 15°
2026-05-08 01:20 43.27544 -110.89873 12000 ft 290 kts 15°
2026-05-08 01:20 43.29440 -110.88953 11893 ft 280 kts 15°
2026-05-08 01:20 43.31252 -110.88073 11781 ft 273 kts 15°
2026-05-08 01:20 43.33003 -110.87228 11665 ft 267 kts 14°
2026-05-08 01:21 43.34729 -110.86395 11548 ft 258 kts 15°
2026-05-08 01:21 43.36394 -110.85587 11437 ft 249 kts 14°
2026-05-08 01:21 43.38023 -110.84801 11096 ft 249 kts 14°
2026-05-08 01:21 43.39667 -110.84012 10722 ft 250 kts 14°
2026-05-08 01:22 43.41310 -110.83222 10391 ft 249 kts 14°
2026-05-08 01:22 43.42947 -110.82432 10038 ft 249 kts 15°
2026-05-08 01:22 43.44591 -110.81636 9672 ft 250 kts 15°
2026-05-08 01:22 43.46233 -110.80839 9318 ft 249 kts 16°
2026-05-08 01:23 43.47862 -110.80046 8968 ft 249 kts 15°
2026-05-08 01:23 43.49491 -110.79253 8629 ft 247 kts 15°
2026-05-08 01:23 43.51100 -110.78472 8291 ft 241 kts 17°
2026-05-08 01:23 43.52639 -110.77720 7967 ft 229 kts 18°
2026-05-08 01:24 43.54076 -110.77016 7664 ft 214 kts 17°
2026-05-08 01:24 43.55430 -110.76354 7368 ft 199 kts 17°
2026-05-08 01:24 43.56663 -110.75749 7117 ft 175 kts 14°
2026-05-08 01:24 43.57740 -110.75218 6885 ft 155 kts 16°
2026-05-08 01:25 43.58717 -110.74742 6675 ft 144 kts 13°
2026-05-08 01:25 43.59642 -110.74300 6494 ft 139 kts 16°
2026-05-08 01:25 43.60509 -110.73888 6433 ft 116 kts 18°
2026-05-08 01:25 43.61110 -110.73602 6438 ft 66 kts 19°
2026-05-08 01:26 43.61404 -110.73461 6445 ft 31 kts 18°
2026-05-08 01:26 43.61518 -110.73363 6455 ft 7 kts 63°
2026-05-08 01:26 43.61523 -110.73309 6458 ft 7 kts 99°
2026-05-08 01:26 43.61469 -110.73259 6449 ft 13 kts 184°
2026-05-08 01:27 43.61366 -110.73309 6447 ft 18 kts 198°
2026-05-08 01:27 43.61256 -110.73360 6447 ft 17 kts 202°
2026-05-08 01:27 43.61128 -110.73424 6445 ft 22 kts 199°
2026-05-08 01:27 43.60970 -110.73501 6445 ft 26 kts 199°
2026-05-08 01:28 43.60785 -110.73591 6441 ft 30 kts 199°
2026-05-08 01:28 43.60573 -110.73694 6436 ft 35 kts 199°
2026-05-08 01:28 43.60447 -110.73756 6431 ft 16 kts 199°
2026-05-08 01:28 43.60366 -110.73781 6431 ft 7 kts 153°
2026-05-08 01:29 43.60349 -110.73711 6431 ft 7 kts 109°
2026-05-08 01:29 43.60347 -110.73703 6431 ft 0 kts 107°